Voltar ao catálogo

KUIPER-00214

AtivoComunicaçõesLEO
NORAD 67778·PAYLOAD·🇺🇸 United States

Lançado Feb 12, 2026 de Guiana Space Centre

Loading…

Próximas Passagens (próximas 24 horas)

TLE

AtualizadoSource: CelesTrak SupGP

Época: Sep 15, 2026, 05:43 UTC

1 67778C 26030Q   26258.23869213  .00001157  00000+0  15149-3 0  2587
2 67778  51.8990  85.0062 0000705 105.6098 179.9586 14.79923282    14

Acompanhe KUIPER-00214 em tempo real com AllMySat

Download on the App Store